Погода в Беловодске

Украина / Луганская область     49°12′24″N   39°34′36″E
темп.,
°C
ветер,
м/с
пор.,
м/с
влажн.,
%
обл.,
%
осадки,
мм/ч
давл.,
гПа
погр.,
м
22 мая, вс
вс2200:00+14юз4999100 3.0 1002332
03:00+15зюз81395100 5.3 999959
06:00+14зюз8149496 0.1 998814
09:00+15зюз91386100 0.3 9981052
12:00+15з91376100 0.2 9981258
15:00+15з91265100 0.3 9981642
18:00+15з711685 0.1 9971298
21:00+10з498764 0.4 998243
23 мая, пн
пн2300:00+10з5988100 0.1 998674
03:00+8ссз7118799 0.6 1000848
06:00+9ссз61185100 0.0 10021141
09:00+12с686727 0.1 10041263
12:00+13с5553100 0.3 10051798
15:00+15ссз554472 0.3 10052165
18:00+13с585396 0.0 1007489
21:00+8ссв496969 0.0 1009198
24 мая, вт
вт2400:00+5ссв227660 0.0 101012
03:00+4ссз227984 0.0 101110
06:00+6зсз237594 0.0 1011105
09:00+12зсз34555 0.0 1012982
12:00+15зсз344678 0.0 10112072
15:00+14зсз4656100 0.0 1011809
18:00+15зюз475447 0.0 10121711
21:00+10з347292 0.0 101358
25 мая, ср
ср2500:00+8зсз348343 0.0 101460
03:00+7з478465 0.0 1015116
06:00+9зсз4108768 0.0 1016297
09:00+15сз57675 0.0 1016839
12:00+18сз61049100 0.0 10162238
15:00+18сз795492 0.4 10161760
18:00+17сз5965100 0.1 1017929
21:00+12зсз338192 0.1 101841
26 мая, чт
чт2600:00+11з338781 0.2 101838
03:00+11з358930 0.3 101868
06:00+12зюз38826 0.0 1018196
09:00+16зюз5863100 0.0 1017400
12:00+21зюз794699 0.0 10162567
15:00+18юз6125563 0.0 1015687
18:00+18зюз71260100 0.0 1013870
21:00+12юз81587100 1.4 10131028